[[{"header":{"parameterUnit":"m.s-1","parameterCategory":1,"la1":30.2991,"la2":30.254,"lo1":-89.0895,"lo2":-89.0444,"dy":0.0017,"dx":0.0017,"nx":28,"ny":28,"refTime":"2024-08-31T03:00:00:Z","depth":0,"parameterNumber":2,"parameterNumberName":"U-component_of_WINDS"},"data":[0,0,0,0,0,0,0,0,0,0,0,0,0,0,0,0,0,0,0,0,0,0,0,0,0,0,0,0,0,0,0,0,0,0,0,0,0,0,0,0,0,0,0,0,0,0,0,0,0,0,0,0,0,0,0,0,0,0,-4.9556,-4.9556,0,-4.9593,-4.9593,-4.9593,-4.9474,-4.947,-4.9466,-4.9463,-4.9499,-4.9503,-4.9507,0,0,0,0,0,0,0,0,0,0,0,0,0,-4.938,-4.9384,-4.9556,-4.9556,-4.9557,-4.9593,-4.9593,-4.9594,-4.9474,-4.947,-4.9465,-4.9461,-4.9497,-4.9502,-4.9508,0,0,0,0,0,0,0,0,0,0,0,0,0,-4.9441,-4.9385,-4.9556,-4.9502,-4.9497,-4.9592,-4.9593,-4.9594,-4.9475,-4.947,-4.9464,-4.9459,-4.9496,-4.9502,-4.9508,-4.9657,0,0,-4.9528,-4.9531,0,0,0,0,0,0,0,0,-4.9437,-4.9447,-4.9509,-4.9505,-4.9501,-4.9523,-4.9544,-4.9615,-4.9476,-4.9483,-4.9463,-4.9456,-4.9511,-4.9516,-4.9535,-4.9659,-4.966,-4.9529,-4.9533,-4.9535,-4.9537,0,0,0,0,0,0,0,-4.9433,-4.9445,-4.957,-4.951,-4.9505,-4.9475,-4.9477,-4.9557,-4.9527,-4.9482,-4.9474,-4.948,-4.9508,-4.9529,-4.9535,-4.9661,-4.9529,-4.9534,-4.9538,-4.9541,-4.9908,-4.9913,0,0,0,0,0,0,-4.9436,-4.9442,-4.9569,-4.9571,-4.9455,-4.9482,-4.9485,-4.9521,-4.9526,-4.9522,-4.9484,-4.9474,-4.952,-4.9527,-4.9535,-4.9709,-4.9535,-4.9541,-4.9545,-4.9902,-4.9909,-4.9915,0,0,0,0,0,0,-4.9433,-4.9449,-4.9568,-4.9505,-4.9517,-4.9491,-4.9533,-4.9525,-4.9546,-4.9528,-4.9521,-4.9512,-4.9516,-4.9526,-4.9628,-4.9709,-4.9544,-4.955,-4.9895,-4.9904,-4.9912,-5.0058,0,0,0,0,0,0,-4.9429,-4.9448,-4.9505,-4.9507,-4.9521,-4.966,-4.9538,-4.9529,-4.9557,-4.9544,-4.9551,-4.9547,-4.9513,-4.9619,-4.9634,-4.9715,-4.9555,-4.9888,-4.9899,-4.991,-5.0046,-5.0071,-5.0092,0,0,0,0,0,-4.9423,-4.9545,-4.9509,-4.9525,-4.9592,-4.9665,-4.9673,-4.9632,-4.9565,-4.9621,-4.9609,-4.9547,-4.9698,-4.963,-4.9646,-4.973,-4.9882,-4.9896,-4.9909,-5.0036,-5.0066,-5.0092,0,0,0,0,0,0,-4.9553,-4.9544,-4.9504,-4.963,-4.965,-4.9645,-4.9715,-4.9665,-4.9703,-4.969,-4.9635,-4.9638,-4.9749,-4.975,-4.9675,-4.9874,-4.9778,-4.9795,-4.9869,-4.9898,-4.9921,-4.9918,-4.9561,0,0,0,0,0,-4.9597,-4.9658,-4.9646,-4.9759,-4.9771,-4.9742,-4.9772,-4.9738,-4.9756,-4.9763,-4.9758,-4.9777,-4.9828,-4.9863,-4.991,-5.0046,-5.0045,-5.0112,-5.0135,-5.0154,-5.0169,-5.024,-5.0269,-4.9959,-4.9959,-4.9958,0,0,-4.9687,-4.9689,-4.9731,-4.9785,-4.9796,-4.9859,-4.9749,-4.9821,-4.9867,-4.9774,-4.9869,-4.9867,-4.9884,-5.0003,-5.0056,-5.0007,-5.0255,-5.0171,-5.0186,-5.0191,-5.0256,-5.0286,-5.0312,-4.9968,-4.9966,-4.9965,0,0,-4.9883,-4.9892,-4.9986,-5.0,-5.0018,-4.9998,-5.0021,-5.0024,-5.0019,-5.0114,-5.0045,-5.0099,-5.0189,-5.0203,-5.0223,-5.0426,-5.037,-5.0442,-5.0562,-5.0632,-5.0657,-5.0678,-5.0749,-5.0776,-5.0458,-5.0458,-5.0458,0,-4.9993,-5.0087,-5.0041,-5.0118,-5.0143,-5.0062,-5.0156,-5.0171,-5.0204,-5.0223,-5.0168,-5.0279,-5.0285,-5.0406,-5.0456,-5.0475,-5.0498,-5.0441,-5.0657,-5.0678,-5.0697,-5.0765,-5.0792,-5.0467,-5.0466,-5.0465,-5.0464,0,-5.022,-5.0286,-5.036,-5.0394,-5.0427,-5.0513,-5.0479,-5.0519,-5.0482,-5.0468,-5.0565,-5.057,-5.0615,-5.0642,-5.0607,-5.0758,-5.0727,-5.0666,-5.0569,-5.0736,-5.0798,-5.0824,-5.0479,-5.0476,-5.0473,-5.0471,0,0,-5.0499,-5.0507,-5.0534,-5.0548,-5.0563,-5.0612,-5.0694,-5.0739,-5.0773,-5.0799,-5.0865,-5.0943,-5.0886,-5.0908,-5.0874,-5.0936,-5.1095,-5.0867,-5.0866,-5.0908,-5.1261,-5.1306,-5.1336,-5.1058,-5.1063,-5.1067,-5.1259,0,-5.0691,-5.0831,-5.0792,-5.0932,-5.0992,-5.0916,-5.0986,-5.1003,-5.0992,-5.104,-5.1027,-5.1083,-5.1005,-5.1017,-5.1075,-5.1064,-5.1165,-5.1049,-5.1118,-5.1121,-5.1115,-5.1369,-5.1417,-5.1597,-5.1283,-5.1287,-5.129,0,-5.0934,-5.097,-5.1115,-5.1119,-5.1143,-5.1207,-5.1245,-5.1293,-5.1309,-5.1297,-5.1322,-5.1275,-5.1355,-5.1258,-5.1366,-5.1288,-5.1314,-5.1313,-5.1319,-5.1322,-5.1215,-5.1378,-5.1654,-5.1681,-5.1328,-5.1325,-5.1322,0,-5.1122,-5.1205,-5.1303,-5.1318,-5.1325,-5.1372,-5.1377,-5.1388,-5.1417,-5.145,-5.1469,-5.1511,-5.1533,-5.1567,-5.1532,-5.1465,-5.1645,-5.1546,-5.1636,-5.1637,-5.1676,-5.1673,-5.1959,-5.1696,-5.1695,-5.1695,-5.1694,0,-5.134,-5.1432,-5.1387,-5.1447,-5.1548,-5.1502,-5.1603,-5.1599,-5.161,-5.1667,-5.1604,-5.1659,-5.1611,-5.1661,-5.1635,-5.1728,-5.1739,-5.173,-5.1722,-5.1735,-5.1736,-5.175,-5.1736,-5.1702,-5.17,-5.1699,-5.1697,0,-5.1565,-5.1539,-5.1641,-5.164,-5.1641,-5.1715,-5.1714,-5.1769,-5.1753,-5.1827,-5.1841,-5.1817,-5.1873,-5.1842,-5.19,-5.1883,-5.2002,-5.1978,-5.1997,-5.199,-5.2081,-5.2072,-5.2384,-5.2422,-5.2136,-5.2139,-5.2141,0,-5.1705,-5.1774,-5.1781,-5.1815,-5.1824,-5.188,-5.191,-5.1868,-5.1901,-5.1925,-5.1977,-5.2028,-5.2067,-5.216,-5.2147,-5.2191,-5.2166,-5.2272,-5.2172,-5.2183,-5.2165,-5.2161,-5.2167,-5.2292,-5.2295,-5.2298,-5.23,0,-5.1956,-5.194,-5.1986,-5.2028,-5.2065,-5.2095,-5.212,-5.2152,-5.211,-5.2151,-5.2208,-5.2238,-5.2297,-5.2348,-5.2386,-5.239,-5.2338,-5.2332,-5.2355,-5.2368,-5.2376,-5.2371,-5.205,-5.2324,-5.2322,-5.232,-5.2319,-5.2318,-5.2142,-5.22,-5.2213,-5.2266,-5.228,-5.2305,-5.2357,-5.2348,-5.2395,-5.244,-5.2413,-5.248,-5.2493,-5.2539,-5.255,-5.2601,-5.2558,-5.2592,-5.26,-5.2608,-5.262,-5.2369,-5.2608,-5.2607,-5.2606,-5.2606,-5.2605,0,-5.2389,-5.2394,-5.2443,-5.248,-5.2522,-5.247,-5.2495,-5.2533,-5.2593,-5.2611,-5.265,-5.2715,-5.2765,-5.2756,-5.28,-5.2843,-5.282,-5.2856,-5.2851,-5.2853,-5.2656,-5.2632,-5.2873,-5.2873,-5.2873,-5.2873,-5.2873,-5.2873,-5.2522,-5.2616,-5.2601,-5.2702,-5.2706,-5.2771,-5.279,-5.2812,-5.2826,-5.2902,-5.2943,-5.2937,-5.2944,-5.2988,-5.3031,-5.3027,-5.3045,-5.309,-5.3077,-5.2893,-5.2867,-5.2841,-5.2818,-5.3095,-5.3095,-5.3269,-5.327,-5.3272]},{"header":{"parameterUnit":"m.s-1","parameterCategory":1,"la1":30.2991,"la2":30.254,"lo1":-89.0895,"lo2":-89.0444,"dy":0.0017,"dx":0.0017,"nx":28,"ny":28,"refTime":"2024-08-31T03:00:00:Z","depth":0,"parameterNumber":3,"parameterNumberName":"V-component_of_WINDS"},"data":[0,0,0,0,0,0,0,0,0,0,0,0,0,0,0,0,0,0,0,0,0,0,0,0,0,0,0,0,0,0,0,0,0,0,0,0,0,0,0,0,0,0,0,0,0,0,0,0,0,0,0,0,0,0,0,0,0,0,0.8764,0.8764,0,0.8783,0.8783,0.8783,0.8718,0.8716,0.8714,0.8712,0.8733,0.8736,0.8738,0,0,0,0,0,0,0,0,0,0,0,0,0,0.8678,0.868,0.8764,0.8764,0.8765,0.8783,0.8783,0.8783,0.8718,0.8716,0.8713,0.8711,0.8733,0.8735,0.8738,0,0,0,0,0,0,0,0,0,0,0,0,0,0.8708,0.868,0.8764,0.8734,0.8732,0.8782,0.8783,0.8783,0.8719,0.8716,0.8713,0.871,0.8732,0.8735,0.8739,0.882,0,0,0.875,0.8751,0,0,0,0,0,0,0,0,0.8706,0.8711,0.8739,0.8737,0.8734,0.8745,0.876,0.8795,0.8719,0.8724,0.8712,0.8708,0.874,0.8743,0.8752,0.8821,0.8822,0.875,0.8752,0.8754,0.8755,0,0,0,0,0,0,0,0.8704,0.871,0.8771,0.8739,0.8736,0.8722,0.8723,0.8766,0.8748,0.8723,0.8718,0.8721,0.8738,0.8749,0.8752,0.8822,0.875,0.8753,0.8755,0.8757,0.8961,0.8965,0,0,0,0,0,0,0.8705,0.8709,0.8771,0.8772,0.8712,0.8726,0.8727,0.8744,0.8747,0.8745,0.8724,0.8718,0.8744,0.8748,0.8753,0.885,0.8754,0.8757,0.8759,0.8958,0.8962,0.8966,0,0,0,0,0,0,0.8704,0.8712,0.877,0.8739,0.8745,0.873,0.8751,0.8746,0.8757,0.8748,0.8745,0.8738,0.8742,0.8748,0.8804,0.885,0.8759,0.8762,0.8954,0.8959,0.8964,0.9045,0,0,0,0,0,0,0.8702,0.8711,0.8741,0.874,0.8747,0.882,0.8753,0.8749,0.8763,0.8756,0.8761,0.8759,0.874,0.8799,0.8808,0.8853,0.8765,0.895,0.8957,0.8962,0.9038,0.9052,0.9063,0,0,0,0,0,0.8699,0.8762,0.8742,0.875,0.8783,0.8823,0.8827,0.8804,0.8767,0.8798,0.8792,0.8759,0.8844,0.8806,0.8815,0.8862,0.8947,0.8955,0.8962,0.9032,0.9049,0.9063,0,0,0,0,0,0,0.8769,0.8762,0.8739,0.8805,0.8815,0.8811,0.8849,0.8822,0.8843,0.8836,0.8807,0.8809,0.8871,0.8872,0.883,0.8943,0.8889,0.8899,0.894,0.8956,0.8968,0.8967,0.8768,0,0,0,0,0,0.8792,0.8823,0.8816,0.8874,0.888,0.8864,0.888,0.8862,0.8871,0.8876,0.8874,0.8886,0.8915,0.8935,0.8962,0.9038,0.9039,0.9075,0.9088,0.9098,0.9107,0.9151,0.9167,0.899,0.899,0.899,0,0,0.884,0.884,0.8861,0.8888,0.8894,0.8929,0.8868,0.8907,0.8933,0.8882,0.8935,0.8935,0.8946,0.9013,0.9043,0.9016,0.9157,0.9108,0.9116,0.912,0.916,0.9177,0.9192,0.8995,0.8994,0.8993,0,0,0.8946,0.8948,0.8998,0.9005,0.9015,0.9004,0.9016,0.9018,0.9015,0.9069,0.9032,0.9063,0.9114,0.9124,0.9136,0.925,0.9221,0.9259,0.9327,0.9369,0.9383,0.9396,0.9438,0.9454,0.9268,0.9268,0.9268,0,0.9004,0.9054,0.9027,0.9069,0.9084,0.9039,0.9091,0.91,0.9118,0.9129,0.9099,0.9164,0.9168,0.9239,0.9267,0.9277,0.9292,0.9259,0.9383,0.9395,0.9406,0.9447,0.9463,0.9273,0.9272,0.9272,0.9271,0,0.9127,0.9162,0.9202,0.9221,0.9239,0.9286,0.9269,0.9291,0.9272,0.9265,0.9322,0.9326,0.9354,0.9369,0.935,0.9438,0.9421,0.9388,0.9334,0.9429,0.9466,0.9481,0.928,0.9278,0.9277,0.9275,0,0,0.9276,0.9281,0.9296,0.9306,0.9314,0.9342,0.9388,0.9415,0.9436,0.9451,0.9491,0.9536,0.9506,0.9519,0.9502,0.9539,0.9632,0.9501,0.9501,0.9527,0.9732,0.9759,0.9777,0.9612,0.9615,0.9617,0.9732,0,0.9382,0.9459,0.9438,0.9517,0.9551,0.9511,0.9551,0.9562,0.9558,0.9588,0.9583,0.9617,0.9572,0.9581,0.9616,0.9613,0.9673,0.9604,0.9651,0.9653,0.9651,0.9796,0.9824,0.9931,0.9746,0.9749,0.975,0,0.9514,0.9535,0.9617,0.9623,0.9636,0.9673,0.9698,0.9726,0.9738,0.9733,0.975,0.9726,0.9774,0.9719,0.9787,0.9741,0.9759,0.9761,0.9764,0.9769,0.9708,0.9806,0.9965,0.9982,0.9773,0.9771,0.977,0,0.9618,0.9666,0.9722,0.9731,0.9738,0.9766,0.977,0.978,0.9798,0.982,0.9833,0.986,0.9876,0.9899,0.9884,0.9845,0.9955,0.9898,0.9954,0.9954,0.9979,0.9978,1.0145,0.9989,0.9988,0.9988,0.9988,0,0.9738,0.9791,0.9769,0.9804,0.9862,0.9839,0.9898,0.9898,0.9907,0.9943,0.991,0.9944,0.9921,0.9955,0.9943,1.0003,1.0009,1.0008,1.0005,1.0012,1.0012,1.0024,1.0017,0.9992,0.9991,0.999,0.999,0,0.9864,0.9851,0.991,0.9913,0.9915,0.9958,0.9961,0.9995,0.9988,1.0034,1.0044,1.0035,1.0073,1.006,1.01,1.0093,1.0169,1.0155,1.0164,1.0162,1.0218,1.0214,1.0399,1.0424,1.025,1.0252,1.0253,0,0.9942,0.9982,0.9989,1.0011,1.0018,1.0052,1.0071,1.0051,1.0072,1.0091,1.0124,1.0158,1.0185,1.0248,1.0246,1.0278,1.0265,1.0328,1.027,1.0277,1.0269,1.0267,1.0273,1.034,1.0342,1.0344,1.0345,0,1.0084,1.0076,1.0104,1.0132,1.0156,1.0176,1.0194,1.0214,1.0194,1.0221,1.0259,1.028,1.0322,1.0358,1.0388,1.0394,1.0368,1.0364,1.0379,1.0387,1.0392,1.0392,1.0198,1.036,1.0358,1.0357,1.0356,1.0356,1.019,1.0224,1.0236,1.0269,1.0281,1.0299,1.0331,1.0329,1.0361,1.0393,1.0379,1.0424,1.0439,1.0475,1.0486,1.0522,1.0498,1.0519,1.0525,1.0531,1.0539,1.0385,1.0527,1.0527,1.0526,1.0526,1.0526,0,1.0331,1.0337,1.0368,1.0395,1.0422,1.0394,1.0413,1.0438,1.0478,1.0493,1.0521,1.0567,1.0602,1.0604,1.0638,1.0667,1.0656,1.0677,1.0675,1.0678,1.0557,1.0542,1.0685,1.0685,1.0685,1.0685,1.0685,1.0685,1.0408,1.0466,1.046,1.0525,1.053,1.0573,1.0587,1.0605,1.0617,1.067,1.0699,1.0699,1.071,1.0745,1.0778,1.0777,1.0792,1.0818,1.0814,1.0701,1.0686,1.0671,1.0656,1.0821,1.0821,1.0931,1.0932,1.0933]}]]